This is the latest recevied weather packets stored in our database for station/object DJ5NF-10. If no packets are shown the sender has not sent any weather packets the latest 10 day(s).
| Time | Temp. | Humidity | Pressure | Rain* | Wind** | Luminosity | Snow |
|---|---|---|---|---|---|---|---|
| 1787549025 | 22.22° C | 34% | 1019.2 hPa | - | - | - | - |
| 1787532824 | 23.33° C | 34% | 1019.4 hPa | - | - | - | - |
| 1787511224 | 25° C | 34% | 1019.2 hPa | - | - | - | - |
| 1787508524 | 25° C | 34% | 1019 hPa | - | - | - | - |
| 1787505825 | 25° C | 34% | 1019 hPa | - | - | - | - |
| 1787503125 | 25° C | 34% | 1019.3 hPa | - | - | - | - |
| 1787500425 | 25° C | 34% | 1019.5 hPa | - | - | - | - |
| 1787495024 | 25° C | 34% | 1019.4 hPa | - | - | - | - |
| 1787489624 | 24.44° C | 35% | 1020 hPa | - | - | - | - |
| 1787481524 | 23.33° C | 35% | 1020.3 hPa | - | - | - | - |
| 1787478824 | 23.33° C | 35% | 1020.2 hPa | - | - | - | - |
| 1787476124 | 23.33° C | 35% | 1020.4 hPa | - | - | - | - |
| 1787468024 | 22.78° C | 35% | 1020.2 hPa | - | - | - | - |
| 1787465324 | 22.78° C | 35% | 1020.1 hPa | - | - | - | - |
| 1787459924 | 22.78° C | 35% | 1019.7 hPa | - | - | - | - |
| 1787457224 | 22.78° C | 36% | 1019.3 hPa | - | - | - | - |
| 1787454524 | 23.33° C | 36% | 1019.2 hPa | - | - | - | - |
| 1787446423 | 23.89° C | 36% | 1018.7 hPa | - | - | - | - |
| 1787435623 | 25° C | 36% | 1018.6 hPa | - | - | - | - |
| 1787424823 | 25.56° C | 36% | 1017.2 hPa | - | - | - | - |
| 1787422123 | 25.56° C | 36% | 1016.7 hPa | - | - | - | - |
| 1787419427 | 26.11° C | 35% | 1016.3 hPa | - | - | - | - |
| 1787416727 | 25.56° C | 36% | 1016 hPa | - | - | - | - |
| 1787411327 | 25.56° C | 36% | 1015.5 hPa | - | - | - | - |
| 1787403226 | 25.56° C | 36% | 1014.7 hPa | - | - | - | - |
* Rain since midnight (hover to see other rain measurements)
** Current wind speed in m/s (hover to see current wind gust speed)